カタログに戻る

FENGYUN 1C DEB

LostPO
NORAD 37033·DEBRIS·🇨🇳 China

打ち上げ May 10, 1999 から Taiyuan Satellite Launch Center

Loading…

次のパス (今後24時間)

TLE

古いSource: Space-Track

元期: Aug 10, 2014, 19:12 UTC

1 37033U 99025EDR 14222.80036932 +.00003297 +00000-0 +93423-3 0  9998
2 37033 099.6894 234.7089 0115346 287.5040 328.5948 14.42532617353119

AllMySatでFENGYUN 1C DEBをリアルタイム追跡

Download on the App Store